TimeCST,TemperatureF,Dew PointF,Humidity,Sea Level PressureIn,VisibilityMPH,Wind Direction,Wind SpeedMPH,Gust SpeedMPH,PrecipitationIn,Events,Conditions,WindDirDegrees,DateUTC
12:52 AM,26.1,14.0,60,30.34,10.0,North,6.9,-,N/A,,Overcast,10,2013-12-30 06:52:00
1:52 AM,24.1,14.0,65,30.32,10.0,North,5.8,-,N/A,,Overcast,10,2013-12-30 07:52:00
2:16 AM,21.2,14.0,74,30.29,10.0,North,5.8,-,N/A,,Scattered Clouds,360,2013-12-30 08:16:00
2:52 AM,21.0,14.0,74,30.31,10.0,North,4.6,-,N/A,,Clear,10,2013-12-30 08:52:00
3:52 AM,19.0,14.0,81,30.32,10.0,North,5.8,-,N/A,,Clear,360,2013-12-30 09:52:00
4:52 AM,18.0,12.0,78,30.31,10.0,NNW,5.8,-,N/A,,Clear,340,2013-12-30 10:52:00
5:52 AM,19.0,10.9,71,30.31,10.0,North,3.5,-,N/A,,Clear,350,2013-12-30 11:52:00
6:52 AM,19.9,10.0,65,30.31,10.0,North,3.5,-,N/A,,Clear,10,2013-12-30 12:52:00
7:52 AM,19.0,10.0,68,30.33,10.0,North,3.5,-,N/A,,Clear,350,2013-12-30 13:52:00
8:52 AM,23.0,10.0,58,30.34,10.0,NNE,3.5,-,N/A,,Clear,30,2013-12-30 14:52:00
9:52 AM,25.0,10.9,55,30.36,10.0,NE,5.8,-,N/A,,Clear,40,2013-12-30 15:52:00
10:52 AM,28.0,10.0,47,30.36,10.0,Calm,Calm,-,N/A,,Clear,0,2013-12-30 16:52:00
11:52 AM,32.0,12.0,44,30.35,10.0,Calm,Calm,-,N/A,,Clear,0,2013-12-30 17:52:00
12:52 PM,35.1,12.9,40,30.30,10.0,SW,4.6,-,N/A,,Clear,220,2013-12-30 18:52:00
1:52 PM,37.9,14.0,38,30.28,10.0,Calm,Calm,-,N/A,,Clear,0,2013-12-30 19:52:00
2:52 PM,39.9,14.0,35,30.28,10.0,Calm,Calm,-,N/A,,Clear,0,2013-12-30 20:52:00
3:52 PM,41.0,14.0,33,30.30,10.0,Calm,Calm,-,N/A,,Clear,0,2013-12-30 21:52:00
4:52 PM,41.0,16.0,36,30.31,10.0,NW,3.5,-,N/A,,Clear,310,2013-12-30 22:52:00
5:52 PM,37.9,17.1,43,30.33,10.0,Calm,Calm,-,N/A,,Clear,0,2013-12-30 23:52:00
6:52 PM,36.0,18.0,48,30.36,10.0,Calm,Calm,-,N/A,,Clear,0,2013-12-31 00:52:00
7:52 PM,34.0,17.1,50,30.39,10.0,Calm,Calm,-,N/A,,Clear,0,2013-12-31 01:52:00
8:52 PM,33.1,17.1,52,30.40,10.0,Calm,Calm,-,N/A,,Clear,0,2013-12-31 02:52:00
9:52 PM,32.0,17.1,54,30.42,10.0,Calm,Calm,-,N/A,,Clear,0,2013-12-31 03:52:00
10:52 PM,33.1,17.1,52,30.42,10.0,Calm,Calm,-,N/A,,Clear,0,2013-12-31 04:52:00
11:52 PM,28.0,17.1,63,30.42,10.0,SSW,5.8,-,N/A,,Clear,210,2013-12-31 05:52:00